******** Week 366 almanac for PRN-1 ******** ID: 1 Health: 0 Eccentricity: 0.001693248749 Time of Applicability(s): 233472 Orbital Inclination(rad): 0.9576857775 Rate of Right Ascen(r/s): -7.897471818e-09 SQRT(A) (m 1/2): 5153.570312 Right Ascen at Week(rad): 2.384787354 Argument of Perigee(rad): 0.1582475704 Mean Anom(rad): 2.073652907 Af0(s): 0.0002351463867 Af1(s/s): -7.275958e-12 week: 366 ******** Week 366 almanac for PRN-2 ******** ID: 2 Health: 0 Eccentricity: 0.01682662964 Time of Applicability(s): 233472 Orbital Inclination(rad): 0.9627551046 Rate of Right Ascen(r/s): -7.920329913e-09 SQRT(A) (m 1/2): 5153.719238 Right Ascen at Week(rad): 2.222427322 Argument of Perigee(rad): -0.7829945776 Mean Anom(rad): -2.698062483 Af0(s): 6.255496826e-05 Af1(s/s): 7.275958e-12 week: 366 ******** Week 366 almanac for PRN-3 ******** ID: 3 Health: 0 Eccentricity: 0.006690502167 Time of Applicability(s): 233472 Orbital Inclination(rad): 0.9941417896 Rate of Right Ascen(r/s): -7.577458489e-09 SQRT(A) (m 1/2): 5153.563965 Right Ascen at Week(rad): -2.910230826 Argument of Perigee(rad): 1.208962991 Mean Anom(rad): 0.007596126058 Af0(s): 0.0003979400391 Af1(s/s): -1.455192e-11 week: 366 ******** Week 366 almanac for PRN-4 ******** ID: 4 Health: 0 Eccentricity: 0.00372838974 Time of Applicability(s): 233472 Orbital Inclination(rad): 0.97071263 Rate of Right Ascen(r/s): -8.160339911e-09 SQRT(A) (m 1/2): 5153.655762 Right Ascen at Week(rad): -1.840650737 Argument of Perigee(rad): -2.870000907 Mean Anom(rad): 2.958013429 Af0(s): 4.220576172e-05 Af1(s/s): 0 week: 366 ******** Week 366 almanac for PRN-5 ******** ID: 5 Health: 0 Eccentricity: 0.00549697876 Time of Applicability(s): 233472 Orbital Inclination(rad): 0.9806475524 Rate of Right Ascen(r/s): -7.657461821e-09 SQRT(A) (m 1/2): 5153.68457 Right Ascen at Week(rad): -2.970504362 Argument of Perigee(rad): 1.421666131 Mean Anom(rad): -2.657711972 Af0(s): -0.0001831428589 Af1(s/s): 0 week: 366 ******** Week 366 almanac for PRN-6 ******** ID: 6 Health: 0 Eccentricity: 0.003787994385 Time of Applicability(s): 233472 Orbital Inclination(rad): 0.986489862 Rate of Right Ascen(r/s): -7.623174678e-09 SQRT(A) (m 1/2): 5153.620117 Right Ascen at Week(rad): 2.336514147 Argument of Perigee(rad): -0.5345537306 Mean Anom(rad): 1.292322638 Af0(s): -0.0004823515625 Af1(s/s): 3.637979e-12 week: 366 ******** Week 366 almanac for PRN-7 ******** ID: 7 Health: 0 Eccentricity: 0.0207400322 Time of Applicability(s): 233472 Orbital Inclination(rad): 0.950944651 Rate of Right Ascen(r/s): -7.886042771e-09 SQRT(A) (m 1/2): 5153.5625 Right Ascen at Week(rad): -0.8319168052 Argument of Perigee(rad): -1.978240126 Mean Anom(rad): 0.4591519835 Af0(s): -0.0001371687256 Af1(s/s): -3.637979e-12 week: 366 ******** Week 366 almanac for PRN-8 ******** ID: 8 Health: 0 Eccentricity: 0.01159620285 Time of Applicability(s): 233472 Orbital Inclination(rad): 0.9428193465 Rate of Right Ascen(r/s): -8.491782288e-09 SQRT(A) (m 1/2): 5153.641602 Right Ascen at Week(rad): 1.21398588 Argument of Perigee(rad): 0.5371659171 Mean Anom(rad): -3.018217306 Af0(s): 0.0003647783691 Af1(s/s): -7.275958e-12 week: 366 ******** Week 366 almanac for PRN-9 ******** ID: 9 Health: 0 Eccentricity: 0.003353118896 Time of Applicability(s): 233472 Orbital Inclination(rad): 0.9649482178 Rate of Right Ascen(r/s): -8.228914196e-09 SQRT(A) (m 1/2): 5153.692871 Right Ascen at Week(rad): -1.905204888 Argument of Perigee(rad): 2.053519034 Mean Anom(rad): -2.420021724 Af0(s): 0.0006006784302 Af1(s/s): -3.637979e-12 week: 366 ******** Week 366 almanac for PRN-10 ******** ID: 10 Health: 0 Eccentricity: 0.01092386246 Time of Applicability(s): 233472 Orbital Inclination(rad): 0.9936624206 Rate of Right Ascen(r/s): -7.543171346e-09 SQRT(A) (m 1/2): 5153.609375 Right Ascen at Week(rad): -2.912736653 Argument of Perigee(rad): -2.257697645 Mean Anom(rad): -0.9846287872 Af0(s): -0.0004657707275 Af1(s/s): 0 week: 366 ******** Week 366 almanac for PRN-11 ******** ID: 11 Health: 0 Eccentricity: 0.00222826004 Time of Applicability(s): 233472 Orbital Inclination(rad): 0.9633782843 Rate of Right Ascen(r/s): -7.863184676e-09 SQRT(A) (m 1/2): 5153.549316 Right Ascen at Week(rad): 2.354357909 Argument of Perigee(rad): -2.328183238 Mean Anom(rad): 2.455758308 Af0(s): -0.0002946866577 Af1(s/s): 1.455192e-11 week: 366 ******** Week 366 almanac for PRN-12 ******** ID: 12 Health: 0 Eccentricity: 0.008907318115 Time of Applicability(s): 233472 Orbital Inclination(rad): 0.9594414664 Rate of Right Ascen(r/s): -7.920329913e-09 SQRT(A) (m 1/2): 5153.702148 Right Ascen at Week(rad): 0.2857806958 Argument of Perigee(rad): 1.573663179 Mean Anom(rad): -0.245215218 Af0(s): -0.0004808442139 Af1(s/s): 0 week: 366 ******** Week 366 almanac for PRN-13 ******** ID: 13 Health: 0 Eccentricity: 0.01012182236 Time of Applicability(s): 233472 Orbital Inclination(rad): 0.9762253734 Rate of Right Ascen(r/s): -8.103194673e-09 SQRT(A) (m 1/2): 5153.614258 Right Ascen at Week(rad): -1.729491434 Argument of Perigee(rad): 0.9944034207 Mean Anom(rad): 3.038077789 Af0(s): 0.0005373697876 Af1(s/s): 0 week: 366 ******** Week 366 almanac for PRN-14 ******** ID: 14 Health: 0 Eccentricity: 0.00695848465 Time of Applicability(s): 233472 Orbital Inclination(rad): 0.9427833938 Rate of Right Ascen(r/s): -8.034620388e-09 SQRT(A) (m 1/2): 5153.607422 Right Ascen at Week(rad): 0.2304888526 Argument of Perigee(rad): -2.728991895 Mean Anom(rad): -0.3768739129 Af0(s): 0.0005871122925 Af1(s/s): 0 week: 366 ******** Week 366 almanac for PRN-15 ******** ID: 15 Health: 0 Eccentricity: 0.01666259766 Time of Applicability(s): 233472 Orbital Inclination(rad): 0.9429931177 Rate of Right Ascen(r/s): -8.468924193e-09 SQRT(A) (m 1/2): 5153.649414 Right Ascen at Week(rad): -2.050322617 Argument of Perigee(rad): 1.50983295 Mean Anom(rad): 2.270211797 Af0(s): 0.0003188042358 Af1(s/s): 3.637979e-12 week: 366 ******** Week 366 almanac for PRN-16 ******** ID: 16 Health: 0 Eccentricity: 0.01500082016 Time of Applicability(s): 233472 Orbital Inclination(rad): 0.9585426496 Rate of Right Ascen(r/s): -7.920329913e-09 SQRT(A) (m 1/2): 5153.620605 Right Ascen at Week(rad): 0.3026773294 Argument of Perigee(rad): 0.9331572902 Mean Anom(rad): -1.972228539 Af0(s): 0.0001936942993 Af1(s/s): 7.275958e-12 week: 366 ******** Week 366 almanac for PRN-17 ******** ID: 17 Health: 0 Eccentricity: 0.01259803772 Time of Applicability(s): 233472 Orbital Inclination(rad): 0.9584168152 Rate of Right Ascen(r/s): -8.343204671e-09 SQRT(A) (m 1/2): 5153.556152 Right Ascen at Week(rad): 1.319397624 Argument of Perigee(rad): -1.114731031 Mean Anom(rad): -3.055386755 Af0(s): -8.893356934e-05 Af1(s/s): -7.275958e-12 week: 366 ******** Week 366 almanac for PRN-18 ******** ID: 18 Health: 0 Eccentricity: 0.005858898163 Time of Applicability(s): 233472 Orbital Inclination(rad): 0.9714556519 Rate of Right Ascen(r/s): -7.760323248e-09 SQRT(A) (m 1/2): 5153.587402 Right Ascen at Week(rad): 2.330871075 Argument of Perigee(rad): -2.871079487 Mean Anom(rad): 1.244044937 Af0(s): -0.000297701355 Af1(s/s): 1.091394e-11 week: 366 ******** Week 366 almanac for PRN-19 ******** ID: 19 Health: 0 Eccentricity: 0.01133108139 Time of Applicability(s): 233472 Orbital Inclination(rad): 0.9575659352 Rate of Right Ascen(r/s): -8.320346576e-09 SQRT(A) (m 1/2): 5153.67041 Right Ascen at Week(rad): 1.363274493 Argument of Perigee(rad): 2.952446757 Mean Anom(rad): -1.291200241 Af0(s): 0.0005509359253 Af1(s/s): 0 week: 366 ******** Week 366 almanac for PRN-20 ******** ID: 20 Health: 0 Eccentricity: 0.00221157074 Time of Applicability(s): 233472 Orbital Inclination(rad): 0.9603402833 Rate of Right Ascen(r/s): -8.286059433e-09 SQRT(A) (m 1/2): 5153.699219 Right Ascen at Week(rad): -1.899809366 Argument of Perigee(rad): -1.919882193 Mean Anom(rad): -0.3286111921 Af0(s): 8.516519775e-05 Af1(s/s): 1.818989e-11 week: 366 ******** Week 366 almanac for PRN-21 ******** ID: 21 Health: 0 Eccentricity: 0.0008344650268 Time of Applicability(s): 233472 Orbital Inclination(rad): 0.9635400713 Rate of Right Ascen(r/s): -7.863184676e-09 SQRT(A) (m 1/2): 5153.740234 Right Ascen at Week(rad): -2.905276098 Argument of Perigee(rad): -0.1862899076 Mean Anom(rad): -0.6709495648 Af0(s): 0.0003270946533 Af1(s/s): 0 week: 366 ******** Week 366 almanac for PRN-22 ******** ID: 22 Health: 0 Eccentricity: 0.0120100975 Time of Applicability(s): 233472 Orbital Inclination(rad): 0.9580033594 Rate of Right Ascen(r/s): -7.920329913e-09 SQRT(A) (m 1/2): 5153.57373 Right Ascen at Week(rad): 0.30603853 Argument of Perigee(rad): -0.9933405697 Mean Anom(rad): -2.407325187 Af0(s): -1.507348633e-05 Af1(s/s): 7.275958e-12 week: 366 ******** Week 366 almanac for PRN-23 ******** ID: 23 Health: 0 Eccentricity: 0.006105899811 Time of Applicability(s): 233472 Orbital Inclination(rad): 0.9886410304 Rate of Right Ascen(r/s): -7.600316584e-09 SQRT(A) (m 1/2): 5153.668457 Right Ascen at Week(rad): -2.945011294 Argument of Perigee(rad): -2.741893662 Mean Anom(rad): 0.08308925285 Af0(s): 0.000502700769 Af1(s/s): 3.637979e-12 week: 366 ******** Week 366 almanac for PRN-24 ******** ID: 24 Health: 0 Eccentricity: 0.01799345016 Time of Applicability(s): 233472 Orbital Inclination(rad): 0.9348977738 Rate of Right Ascen(r/s): -8.160339911e-09 SQRT(A) (m 1/2): 5153.589844 Right Ascen at Week(rad): -0.9411983307 Argument of Perigee(rad): 1.141502291 Mean Anom(rad): 1.44067049 Af0(s): -2.863962402e-05 Af1(s/s): 1.818989e-11 week: 366 ******** Week 366 almanac for PRN-25 ******** ID: 25 Health: 0 Eccentricity: 0.01288080215 Time of Applicability(s): 233472 Orbital Inclination(rad): 0.9478347446 Rate of Right Ascen(r/s): -8.000333246e-09 SQRT(A) (m 1/2): 5153.658203 Right Ascen at Week(rad): 0.1915202728 Argument of Perigee(rad): 1.160570691 Mean Anom(rad): -0.354739424 Af0(s): 0.0003399071167 Af1(s/s): -3.637979e-12 week: 366 ******** Week 366 almanac for PRN-26 ******** ID: 26 Health: 0 Eccentricity: 0.01102161407 Time of Applicability(s): 233472 Orbital Inclination(rad): 0.9286000636 Rate of Right Ascen(r/s): -8.126052768e-09 SQRT(A) (m 1/2): 5153.688477 Right Ascen at Week(rad): 0.1162245112 Argument of Perigee(rad): 0.712893603 Mean Anom(rad): -1.178434676 Af0(s): -0.0002796131714 Af1(s/s): -3.637979e-12 week: 366 ******** Week 366 almanac for PRN-27 ******** ID: 27 Health: 0 Eccentricity: 0.01437616348 Time of Applicability(s): 233472 Orbital Inclination(rad): 0.9518973969 Rate of Right Ascen(r/s): -8.377491813e-09 SQRT(A) (m 1/2): 5153.60791 Right Ascen at Week(rad): 1.246399837 Argument of Perigee(rad): 0.8935130997 Mean Anom(rad): -2.908387503 Af0(s): -8.441152344e-05 Af1(s/s): -1.455192e-11 week: 366 ******** Week 366 almanac for PRN-28 ******** ID: 28 Health: 0 Eccentricity: 0.0003986358643 Time of Applicability(s): 233472 Orbital Inclination(rad): 0.9618562877 Rate of Right Ascen(r/s): -7.828897533e-09 SQRT(A) (m 1/2): 5153.521484 Right Ascen at Week(rad): -0.857185169 Argument of Perigee(rad): -0.3715158408 Mean Anom(rad): 1.151761537 Af0(s): -0.0004386384521 Af1(s/s): 1.091394e-11 week: 366 ******** Week 366 almanac for PRN-29 ******** ID: 29 Health: 0 Eccentricity: 0.003498077393 Time of Applicability(s): 233472 Orbital Inclination(rad): 0.961071321 Rate of Right Ascen(r/s): -8.308917528e-09 SQRT(A) (m 1/2): 5153.676758 Right Ascen at Week(rad): 1.336250815 Argument of Perigee(rad): 2.759120236 Mean Anom(rad): -3.075121028 Af0(s): -0.000269061731 Af1(s/s): 7.275958e-12 week: 366 ******** Week 366 almanac for PRN-30 ******** ID: 30 Health: 0 Eccentricity: 0.008201599121 Time of Applicability(s): 233472 Orbital Inclination(rad): 0.9362220307 Rate of Right Ascen(r/s): -8.068907531e-09 SQRT(A) (m 1/2): 5153.684082 Right Ascen at Week(rad): -0.8415390143 Argument of Perigee(rad): -2.290483488 Mean Anom(rad): 0.2364727259 Af0(s): 0.0001484738403 Af1(s/s): 1.455192e-11 week: 366 ******** Week 366 almanac for PRN-31 ******** ID: 31 Health: 0 Eccentricity: 0.01081562042 Time of Applicability(s): 233472 Orbital Inclination(rad): 0.9547196818 Rate of Right Ascen(r/s): -7.886042771e-09 SQRT(A) (m 1/2): 5153.540527 Right Ascen at Week(rad): -0.8075128038 Argument of Perigee(rad): 0.9441280991 Mean Anom(rad): -0.6217988879 Af0(s): -0.0001228489136 Af1(s/s): 3.637979e-12 week: 366 ******** Week 366 almanac for PRN-32 ******** ID: 32 Health: 0 Eccentricity: 0.009394645691 Time of Applicability(s): 233472 Orbital Inclination(rad): 0.9679622503 Rate of Right Ascen(r/s): -8.171768958e-09 SQRT(A) (m 1/2): 5153.689941 Right Ascen at Week(rad): -1.888054339 Argument of Perigee(rad): -1.982298284 Mean Anom(rad): -2.359344844 Af0(s): 1.507348633e-06 Af1(s/s): 1.818989e-11 week: 366